CAPE
0 0 0 0 0 0 0 0 0 0 0 0 0 0 0 0 0 0 0 0 0 0
0 0 0 0 0 0 0 0 0 0 0 0 0 0 0 0 0 0 0 0 0 0
0 0 0 0 0 0 0 0 0 0 0 0 0 0 0 0 0 0 0 0 0 0
0 0 0 0 0 0 0 0 0 0 0 0 0 0 0 0 0 0 0 0 0 0
0 0 0 0 0 0 10 0 0 0 0 0 0 0 0 0 0 0 0 0 0 0
0 0 0 0 0 0 2 7 0 0 0 0 0 0 0 0 0 0 0 0 0 0
0 0 0 0 0 0 0 9 1 0 0 0 0 0 0 0 0 0 0 0 0 0
0 0 0 0 0 0 0 18 0 0 0 0 0 0 0 0 0 0 0 0 0 0
0 0 0 0 0 42 12 3 0 0 0 0 0 0 0 0 0 0 0 0 0 0
0 0 0 0 15 0 0 0 0 0 0 0 0 3 3 12 0 0 0 0 0 0
0 0 0 0 0 0 0 0 0 0 0 0 0 5 9 14 0 0 0 0 0 0
0 0 0 0 0 0 0 0 0 0 0 0 0 3 3 18 0 0 0 0 0 0
0 0 0 0 0 0 0 0 0 0 0 0 0 7 4 29 0 0 0 0 0 0
0 0 0 0 0 0 0 0 0 0 0 0 1 2 6 25 0 0 0 0 0 0
CIN
0 0 0 0 0 0 0 0 0 0 0 0 0 0 0 0 0 0 0 0 0 0
0 0 0 0 0 0 0 0 0 0 0 0 0 0 0 0 0 0 0 0 0 0
0 0 0 0 0 0 0 0 0 0 0 0 0 0 0 0 0 0 0 0 0 0
0 0 0 0 0 0 0 0 0 0 0 0 0 0 0 0 0 0 0 0 0 0
0 0 0 0 0 -1 -88 0 0 0 0 0 0 0 0 0 0 0 0 0 0 0
0 0 0 0 0 0 -37 -124 0 0 0 0 0 0 0 0 0 0 0 0 0 0
0 0 0 0 0 0 0 -128 -171 0 0 0 0 0 0 0 0 0 0 0 0 0
0 0 0 0 0 0 0 -47 -26 0 0 0 0 0 0 0 0 0 0 0 0 0
0 0 0 0 0 -60 -110 -35 0 0 0 0 0 0 -0 0 0 0 0 0 0 0
0 0 0 0 -81 0 0 0 0 0 0 0 0 -0 -9 -1 0 0 0 0 0 0
0 0 0 0 0 0 0 0 0 0 -1 0 0 -0 -1 -1 0 0 0 0 0 0
0 0 0 0 0 0 0 0 0 0 0 0 0 -0 -2 -1 0 0 0 0 0 0
0 0 0 0 0 0 0 0 0 0 -1 -2 -2 -0 -2 -0 0 0 0 0 0 0
-6 -9 0 0 0 0 0 0 0 0 0 0 -1 -1 -2 -0 0 0 0 0 0 0
Wind_Speed
48 47 45 46 49 49 50 50 50 50 49 46 42 43 39 37 35 33 32 32 31 29
42 42 46 48 48 48 47 47 50 51 51 49 46 43 43 41 40 36 34 33 32 31
46 47 47 48 47 46 45 45 48 50 51 50 49 46 44 45 42 39 37 35 33 31
45 44 42 44 45 41 44 46 46 47 48 48 47 47 48 46 44 41 39 36 34 32
42 42 40 42 43 41 43 45 45 46 47 45 46 46 49 49 45 44 40 37 34 33
40 40 40 41 39 43 44 44 43 43 44 46 46 47 49 49 50 47 43 38 35 32
44 41 38 38 40 43 46 43 44 42 45 46 47 47 50 51 50 50 44 39 35 32
42 44 40 33 44 45 41 42 43 43 45 45 48 49 49 48 52 50 44 39 35 32
46 42 39 40 42 38 39 43 43 44 46 46 48 48 51 46 48 43 41 39 35 32
46 40 41 39 36 43 43 46 47 46 40 48 49 49 51 46 36 35 38 38 35 30
41 45 38 40 39 39 43 46 47 46 41 48 48 45 47 39 32 32 33 34 31 28
41 43 41 43 36 32 44 48 46 45 47 44 44 42 42 42 35 31 30 30 30 26
43 40 42 44 35 39 48 49 45 47 44 42 41 40 40 37 35 38 31 30 29 25
37 43 43 39 41 50 48 44 45 42 38 39 39 38 41 41 33 37 34 32 28 25
Wind_Direction
308 305 303 303 302 302 301 299 297 295 288 280 272 265 264 267 268 267 265 264 265 268
315 313 308 305 303 301 301 299 298 293 289 281 273 266 262 263 265 266 264 263 262 265
317 316 314 311 307 303 303 302 300 295 290 283 273 266 262 260 262 263 264 262 260 261
318 315 315 315 310 304 302 302 299 300 292 286 275 266 260 259 258 259 262 259 257 257
319 317 315 314 311 307 301 297 296 296 293 288 279 268 260 257 255 256 258 257 255 254
319 318 317 314 312 308 302 299 298 298 295 288 279 271 263 257 255 254 255 254 251 250
315 317 319 318 310 306 303 297 296 297 297 291 286 273 266 257 252 251 253 251 248 246
316 316 318 322 311 304 303 297 298 299 297 294 292 273 267 258 251 249 248 247 245 245
313 314 318 319 312 307 305 302 302 302 298 297 292 279 265 257 248 247 244 242 242 243
310 312 315 316 318 306 303 301 301 302 301 289 281 263 256 250 241 243 241 239 237 238
309 306 309 315 317 310 304 300 302 301 299 285 278 252 249 239 236 239 238 234 232 232
304 303 304 309 318 318 303 297 300 301 280 270 270 252 242 228 231 234 233 229 227 227
299 299 300 305 315 313 296 289 296 288 275 271 264 243 234 228 227 225 226 222 222 224
299 294 299 304 307 288 285 277 284 273 261 268 245 244 227 220 221 220 217 214 217 221